Flag for U.S.A. Weather past 2 weeks in Port Angeles, Washington, U.S.A.

Now
65 °F

Sunny.


Feels Like: 65 °F
Forecast: 55 / 70 °F
Wind: 6 mph from Northwest

Location: William R. Fairchild International Airport

Current Time: Jul 28, 2015 at 8:28:44 PM

Latest Report: Jul 28, 2015 at 7:53 PM


Visibility: 10 mi

Pressure: 30.21 "Hg

Humidity: 68%

Dew point: 54 °F

Location of Port AngelesLocation

Historic Weather in Port Angeles — Graph

°F

Port Angeles temperature yesterday

Maximum temperature yesterday: 72 °F (at 3:53 PM)
Minimum temperature yesterday: 53 °F (at 5:53 AM)
Average temperature yesterday: 61 °F

Past Weeks' High & Low Weather Summary

 TemperatureHumidityPressure
High86 °F (Jul 18, 4:53 PM)97% (Jul 15, 5:53 AM)30.29 "Hg (Jul 15, 5:53 AM)
Low50 °F (Jul 17, 3:53 AM)28% (Jul 18, 4:53 PM)29.90 "Hg (Jul 22, 8:53 PM)
Average62 °F71%30.05 "Hg
* Reported Jul 13 6:53 PM — Jul 28 6:53 PM, Port Angeles, Weather by CustomWeather, © 2015

Note: Actual official high and low records may vary slightly from our data, if they occured in-between our weather recording intervals... More about our weather records

Advertising

Port Angeles weather history for previous 24 hours

 ConditionsComfort  
Time TempWeatherWind HumidityBarometerVisibility
6:53 PM
Tue, Jul 28
66 °FSunny.10 mph63%30.22 "Hg10 mi
5:53 PM67 °FSunny.12 mph61%30.23 "Hg10 mi
4:53 PM65 °FSunny.8 mph66%30.24 "Hg10 mi
3:53 PM68 °FSunny.8 mph61%30.25 "Hg10 mi
2:53 PM68 °FSunny.6 mph59%30.26 "Hg10 mi
1:53 PM69 °FSunny.8 mph59%30.27 "Hg10 mi
12:53 PM69 °FSunny.7 mph57%30.28 "Hg10 mi
11:53 AM66 °FSunny.7 mph65%30.29 "Hg10 mi
10:53 AM64 °FSunny.7 mph70%30.29 "Hg10 mi
9:53 AM63 °FSunny.7 mph73%30.29 "Hg10 mi
8:53 AM62 °FSunny.7 mph73%30.29 "Hg10 mi
7:53 AM61 °FSunny.7 mph72%30.29 "Hg10 mi
6:53 AM57 °FSunny.7 mph81%30.28 "Hg10 mi
5:53 AM52 °FClear.6 mph89%30.27 "Hg10 mi
4:53 AM55 °FClear.7 mph80%30.27 "Hg10 mi
3:53 AM55 °FClear.8 mph83%30.26 "Hg10 mi
2:53 AM57 °FClear.7 mph81%30.26 "Hg10 mi
1:53 AM58 °FClear.8 mph78%30.26 "Hg10 mi
12:53 AM57 °FClear.3 mph78%30.25 "Hg10 mi
11:53 PM
Mon, Jul 27
58 °FClear.10 mph78%30.26 "Hg10 mi
10:53 PM59 °FClear.12 mph75%30.25 "Hg10 mi
9:53 PM59 °FSunny.15 mph78%30.26 "Hg10 mi
8:53 PM60 °FSunny.12 mph75%30.25 "Hg10 mi
Weather by CustomWeather, © 2015

See weather overviewHow to use our weather pages